When you browse on this site, cookies collect data to enhance your experience and personalize the content and advertising you see.
Visit our Privacy Policy to learn more. By continuing to use the site, you agree to this use of cookies and data.
  • In United Kingdom
  • List of Countries
  • For 7 days
  • Water Temperature
  • Satellite Maps
  • Weather Map
  • Weather Widgets
  • user-avatar
    Login

    Hourly Weather Ayteke

    Today, 26 March, Tuesday

    Time Temperature Precipitation Wind Pressure Humidity
    00:00 +19°C° 0 mm 3 mps 751 mmHg 40%
    01:00 +18°C° 0 mm 4 mps 751 mmHg 42%
    02:00 +15°C° 0 mm 6 mps 751 mmHg 49%
    03:00 +12°C° 0 mm 7 mps 752 mmHg 57%
    04:00 +7°C° 0 mm 9 mps 752 mmHg 68%
    05:00 +7°C° 0 mm 9 mps 753 mmHg 70%
    06:00 +7°C° 0 mm 8 mps 753 mmHg 72%
    07:00 +6°C° 0 mm 8 mps 754 mmHg 73%
    08:00 +7°C° 0 mm 8 mps 754 mmHg 71%
    09:00 +7°C° 0 mm 8 mps 754 mmHg 69%
    10:00 +9°C° 0 mm 8 mps 755 mmHg 67%
    11:00 +9°C° 0 mm 7 mps 755 mmHg 65%
    12:00 +10°C° 0 mm 7 mps 755 mmHg 63%
    13:00 +10°C° 0 mm 7 mps 755 mmHg 62%
    14:00 +10°C° 0 mm 7 mps 755 mmHg 62%
    15:00 +10°C° 0 mm 7 mps 755 mmHg 63%
    16:00 +9°C° 0 mm 7 mps 755 mmHg 64%
    17:00 +9°C° 0 mm 7 mps 755 mmHg 66%
    18:00 +8°C° 0 mm 7 mps 755 mmHg 68%
    19:00 +7°C° 0 mm 6 mps 756 mmHg 71%
    20:00 +7°C° 0 mm 6 mps 756 mmHg 71%
    21:00 +7°C° 0 mm 5 mps 756 mmHg 72%
    22:00 +7°C° 0 mm 5 mps 756 mmHg 73%
    23:00 +7°C° 0 mm 5 mps 755 mmHg 74%

    Tomorrow, 27 March, Wednesday

    Time Temperature Precipitation Wind Pressure Humidity
    00:00 +7°C° 0 mm 4 mps 755 mmHg 75%
    01:00 +7°C° 0 mm 4 mps 755 mmHg 77%
    02:00 +7°C° 0 mm 5 mps 755 mmHg 76%
    03:00 +7°C° 0 mm 5 mps 754 mmHg 76%
    04:00 +8°C° 0 mm 5 mps 754 mmHg 76%
    05:00 +8°C° 0.1 mm 5 mps 754 mmHg 77%
    06:00 +8°C° 0.1 mm 5 mps 754 mmHg 77%
    07:00 +8°C° 0.1 mm 5 mps 754 mmHg 78%
    08:00 +8°C° 0.6 mm 5 mps 754 mmHg 78%
    09:00 +8°C° 0.6 mm 4 mps 754 mmHg 79%
    10:00 +8°C° 0.6 mm 4 mps 754 mmHg 79%
    11:00 +8°C° 1.6 mm 4 mps 753 mmHg 81%
    12:00 +8°C° 1.6 mm 4 mps 753 mmHg 82%
    13:00 +8°C° 1.6 mm 4 mps 753 mmHg 84%
    14:00 +8°C° 0.8 mm 4 mps 753 mmHg 84%
    15:00 +9°C° 0.8 mm 3 mps 752 mmHg 84%
    16:00 +9°C° 0.8 mm 3 mps 752 mmHg 85%
    17:00 +9°C° 0.1 mm 3 mps 752 mmHg 85%
    18:00 +9°C° 0.1 mm 2 mps 752 mmHg 85%
    19:00 +9°C° 0.1 mm 2 mps 752 mmHg 85%
    20:00 +9°C° 0 mm 2 mps 752 mmHg 85%
    21:00 +9°C° 0 mm 2 mps 752 mmHg 85%
    22:00 +9°C° 0 mm 2 mps 752 mmHg 85%
    23:00 +9°C° 0 mm 3 mps 752 mmHg 85%

    Day after tomorrow, 28 March, Thursday

    Time Temperature Precipitation Wind Pressure Humidity
    00:00 +8°C° 0 mm 4 mps 752 mmHg 85%
    01:00 +8°C° 0 mm 5 mps 752 mmHg 85%
    02:00 +8°C° 0.1 mm 5 mps 752 mmHg 84%
    03:00 +8°C° 0.1 mm 6 mps 752 mmHg 83%
    04:00 +8°C° 0.1 mm 6 mps 752 mmHg 82%
    05:00 +8°C° 0 mm 6 mps 752 mmHg 81%
    06:00 +6°C° 0 mm 7 mps 753 mmHg 80%
    07:00 +6°C° 0 mm 7 mps 753 mmHg 79%
    08:00 +8°C° 0 mm 7 mps 753 mmHg 76%
    09:00 +8°C° 0 mm 7 mps 754 mmHg 73%
    10:00 +9°C° 0 mm 8 mps 754 mmHg 70%
    11:00 +9°C° 0 mm 8 mps 754 mmHg 66%
    12:00 +10°C° 0 mm 8 mps 754 mmHg 62%
    13:00 +11°C° 0 mm 8 mps 754 mmHg 58%
    14:00 +12°C° 0 mm 7 mps 754 mmHg 56%
    15:00 +12°C° 0 mm 7 mps 754 mmHg 54%
    16:00 +14°C° 0 mm 7 mps 755 mmHg 52%
    17:00 +13°C° 0 mm 5 mps 755 mmHg 54%
    18:00 +13°C° 0 mm 4 mps 755 mmHg 57%
    19:00 +12°C° 0 mm 3 mps 755 mmHg 60%
    20:00 +12°C° 0 mm 3 mps 755 mmHg 62%
    21:00 +11°C° 0 mm 3 mps 756 mmHg 64%
    22:00 +12°C° 0 mm 2 mps 756 mmHg 66%
    23:00 +10°C° 0 mm 3 mps 756 mmHg 67%

    29 March, Friday

    Time Temperature Precipitation Wind Pressure Humidity
    00:00 +10°C° 0 mm 3 mps 755 mmHg 68%
    01:00 +10°C° 0 mm 3 mps 755 mmHg 69%
    02:00 +9°C° 0 mm 2 mps 756 mmHg 70%
    03:00 +9°C° 0 mm 2 mps 756 mmHg 71%
    04:00 +8°C° 0 mm 2 mps 756 mmHg 73%
    05:00 +8°C° 0 mm 2 mps 757 mmHg 69%
    06:00 +9°C° 0 mm 2 mps 757 mmHg 66%
    07:00 +9°C° 0 mm 2 mps 757 mmHg 63%
    08:00 +10°C° 0 mm 2 mps 758 mmHg 53%
    09:00 +11°C° 0 mm 3 mps 758 mmHg 44%
    10:00 +13°C° 0 mm 3 mps 758 mmHg 34%
    11:00 +14°C° 0 mm 3 mps 758 mmHg 31%
    12:00 +14°C° 0 mm 3 mps 758 mmHg 28%
    13:00 +16°C° 0 mm 3 mps 757 mmHg 24%
    14:00 +16°C° 0 mm 3 mps 757 mmHg 24%
    15:00 +17°C° 0 mm 3 mps 757 mmHg 23%
    16:00 +17°C° 0 mm 2 mps 757 mmHg 22%
    17:00 +16°C° 0 mm 2 mps 757 mmHg 24%
    18:00 +16°C° 0 mm 3 mps 758 mmHg 27%
    19:00 +14°C° 0 mm 3 mps 758 mmHg 29%
    20:00 +13°C° 0 mm 3 mps 758 mmHg 31%
    21:00 +12°C° 0 mm 3 mps 758 mmHg 34%
    22:00 +12°C° 0 mm 3 mps 759 mmHg 36%
    23:00 +11°C° 0 mm 3 mps 759 mmHg 37%

    30 March, Saturday

    Time Temperature Precipitation Wind Pressure Humidity
    00:00 +11°C° 0 mm 3 mps 759 mmHg 38%
    01:00 +10°C° 0 mm 3 mps 759 mmHg 39%
    02:00 +10°C° 0 mm 3 mps 759 mmHg 39%
    03:00 +10°C° 0 mm 3 mps 759 mmHg 39%
    04:00 +10°C° 0 mm 3 mps 759 mmHg 39%
    05:00 +10°C° 0 mm 3 mps 759 mmHg 39%
    06:00 +11°C° 0 mm 3 mps 759 mmHg 39%
    07:00 +11°C° 0 mm 3 mps 760 mmHg 39%
    08:00 +13°C° 0 mm 4 mps 760 mmHg 38%
    09:00 +15°C° 0 mm 5 mps 760 mmHg 37%
    10:00 +17°C° 0 mm 5 mps 760 mmHg 37%
    11:00 +19°C° 0 mm 5 mps 760 mmHg 35%
    12:00 +20°C° 0 mm 5 mps 760 mmHg 34%
    13:00 +20°C° 0 mm 5 mps 759 mmHg 33%
    14:00 +19°C° 0 mm 6 mps 759 mmHg 38%
    15:00 +16°C° 0 mm 7 mps 759 mmHg 43%
    16:00 +14°C° 0 mm 7 mps 759 mmHg 47%
    17:00 +11°C° 0.2 mm 7 mps 760 mmHg 56%
    18:00 +9°C° 0.2 mm 7 mps 760 mmHg 64%
    19:00 +8°C° 0.2 mm 7 mps 760 mmHg 73%
    20:00 +6°C° 1.9 mm 7 mps 761 mmHg 75%
    21:00 +5°C° 1.9 mm 6 mps 761 mmHg 78%
    22:00 +5°C° 1.9 mm 5 mps 761 mmHg 80%
    23:00 +5°C° 1.9 mm 4 mps 762 mmHg 79%

    31 March, Sunday

    Time Temperature Precipitation Wind Pressure Humidity
    00:00 +7°C° 1.9 mm 3 mps 762 mmHg 77%
    01:00 +7°C° 1.9 mm 2 mps 762 mmHg 76%
    02:00 +7°C° 0.1 mm 2 mps 762 mmHg 75%
    03:00 +7°C° 0.1 mm 2 mps 762 mmHg 73%
    04:00 +7°C° 0.1 mm 2 mps 762 mmHg 72%
    05:00 +7°C° 0 mm 2 mps 763 mmHg 72%
    06:00 +7°C° 0 mm 3 mps 763 mmHg 71%
    07:00 +7°C° 0 mm 3 mps 763 mmHg 71%
    08:00 +8°C° 0 mm 3 mps 764 mmHg 59%
    09:00 +9°C° 0 mm 3 mps 764 mmHg 46%
    10:00 +10°C° 0 mm 3 mps 764 mmHg 34%
    11:00 +11°C° 0 mm 3 mps 764 mmHg 32%
    12:00 +12°C° 0 mm 3 mps 764 mmHg 30%
    13:00 +12°C° 0 mm 3 mps 763 mmHg 28%
    14:00 +13°C° 0 mm 3 mps 763 mmHg 28%
    15:00 +13°C° 0 mm 3 mps 763 mmHg 28%
    16:00 +14°C° 0 mm 3 mps 763 mmHg 28%
    17:00 +13°C° 0 mm 4 mps 763 mmHg 32%
    18:00 +12°C° 0 mm 5 mps 763 mmHg 36%
    19:00 +12°C° 0 mm 5 mps 763 mmHg 40%
    20:00 +10°C° 0 mm 5 mps 763 mmHg 43%
    21:00 +9°C° 0 mm 5 mps 763 mmHg 47%
    22:00 +8°C° 0 mm 5 mps 764 mmHg 51%
    23:00 +8°C° 0 mm 5 mps 763 mmHg 53%
    Show more